Regional Weather Roundup
Issued by NWS San Angelo, TX

Home | Current Version | Previous Version | Text Only | Print | Product List | Glossary On
Versions: 1 2 3 4 5 6 7 8 9 10 11 12 13 14 15 16 17 18 19 20 21 22 23 24 25 26 27 28 29 30 31 32 33 34 35 36 37 38 39 40 41 42 43 44 45 46 47 48 49 50
000
ASUS44 KSJT 232010
RWRSJT
WEST CENTRAL TEXAS REGIONAL WEATHER ROUNDUP
NATIONAL WEATHER SERVICE SAN ANGELO TX
300 PM CDT WED AUG 23 2017

NOTE: "FAIR" INDICATES FEW OR NO CLOUDS BELOW 12,000 FEET WITH NO
SIGNIFICANT WEATHER AND/OR OBSTRUCTIONS TO VISIBILITY.

TXZ049-054-064>066-071>073-076>078-098-099-113-114-127-128-139-140-
154-155-168>170-232100
...LOCATIONS ACROSS WEST CENTRAL TEXAS...

CITY           SKY/WX    TMP DP  RH WIND       PRES   REMARKS
SAN ANGELO     CLOUDY    87  66  49 VRB3      30.02F
ABILENE        CLOUDY    87  67  51 NE8       30.03F
DYESS AFB      MOSUNNY   87  69  56 NE10G16   30.01F
JUNCTION       MOSUNNY   87  70  56 N13       30.01F
SWEETWATER     MOSUNNY   83  67  59 N5        30.09F
BROWNWOOD      PTSUNNY   88  68  51 N3        29.99F
COLEMAN        PTCLDY    79  67  66 NE10      30.02F
SONORA         MOSUNNY   86  66  51 CALM      30.06F
OZONA          FAIR      82  68  61 NE12      30.06F
BRADY          NOT AVBL
$$

TEXAS PANHANDLE/OKLAHOMA PANHANDLE

CITY           SKY/WX    TMP DP  RH WIND       PRES   REMARKS
AMARILLO       CLOUDY    75  65  70 SE7       30.18F
BORGER         PTSUNNY   82  65  56 VRB5      30.14F
CANADIAN       CLOUDY    78  67  70 CALM      30.12F
DALHART        CLOUDY    74  65  73 S7        30.20F
DUMAS          PTCLDY    73  64  71 CALM      30.19F
GUYMON         NOT AVBL
HEREFORD       MOCLDY    79  67  67 S7        30.18F
PAMPA          PTCLDY    80  65  61 SE6       30.16F
PERRYTON       NOT AVBL
$$

SOUTHERN PANHANDLE/SOUTH PLAINS/ROLLING PLAINS

CITY           SKY/WX    TMP DP  RH WIND       PRES   REMARKS
LUBBOCK        PTSUNNY   79  67  66 NE7       30.13F
SNYDER         PTSUNNY   82  67  62 E10       30.08F
CHILDRESS      CLOUDY    81  67  62 E3        30.09F
SEMINOLE       MOCLDY    83  62  48 E3        30.12F
$$

PERMIAN BASIN

CITY           SKY/WX    TMP DP  RH WIND       PRES   REMARKS
MIDLAND        SUNNY     85  66  53 NE6       30.08F
ODESSA         PTSUNNY   83  65  54 S6        30.10F
WINK           PTSUNNY   86  64  47 VRB3      30.05F
$$

FAR WEST/SOUTHWEST MOUNTAINS/TRANS PECOS

CITY           SKY/WX    TMP DP  RH WIND       PRES   REMARKS
ALPINE         PTCLDY    81  64  55 E7        30.22F
DRYDEN           N/A     93  63  36 N7        29.99F
EL PASO        MOSUNNY   89  64  43 VRB6      30.07F
FORT STOCKTON  MOSUNNY   85  66  53 CALM      30.07F
GUADALUPE PASS MOSUNNY   78  63  59 NE17G29   30.23F
MARFA          CLOUDY    80  64  58 NE12      30.19F
PECOS          MOCLDY    86  65  48 NE6       30.05F
$$

DALLAS/FORT WORTH METROPLEX

CITY           SKY/WX    TMP DP  RH WIND       PRES   REMARKS
DFW AIRPORT    CLOUDY    88  69  53 NE6       29.96F
FTW MEACHAM    CLOUDY    90  72  55 NE9       29.97F
DAL-EXECUTIVE  CLOUDY    90  69  50 NE5       29.96F
GRAND PRAIRIE  SUNNY     90  66  45 NE6       29.98F
ADDISON        PTSUNNY   86  68  54 N5        29.98F
MESQUITE       PTCLDY    86  70  58 N7        29.97F
LANCASTER      CLOUDY    90  70  51 N7        29.97F
$$

NORTH CENTRAL TEXAS

CITY           SKY/WX    TMP DP  RH WIND       PRES   REMARKS
SHRMAN/DENISON CLOUDY    81  72  74 N5        30.01F
GAINESVILLE    CLOUDY    85  72  63 N6        30.01F
BRIDGEPORT     PTCLDY    86  70  59 NW5       30.01F
DENTON         CLOUDY    86  71  60 CALM      29.98F
WAXAHACHIE     CLEAR     88  71  57 NE5       29.98F
GRANBURY       MOCLDY    86  71  61 CALM      29.99F
$$

WESTERN NORTH TEXAS

CITY           SKY/WX    TMP DP  RH WIND       PRES   REMARKS
WICHITA FALLS  PTSUNNY   85  68  56 CALM      30.01F
VERNON         MOCLDY    84  64  50 SE6       30.05F
BRECKENRIDGE   MOCLDY    88  68  52 N6        30.01F
COMANCHE       MOSUNNY   87  70  56 E6        30.00F
$$

CENTRAL AND SOUTH CENTRAL TEXAS

CITY           SKY/WX    TMP DP  RH WIND       PRES   REMARKS
AUSTIN/BERGSTM MOSUNNY   98  65  33 CALM      29.89F
WACO           SUNNY     94  73  50 NE7       29.92F
HILLSBORO      CLOUDY    90  70  51 N10       29.95F
TEMPLE         PTSUNNY   93  69  45 N10G16    29.92F
KILLEEN-GRAY   PTSUNNY   92  68  45 NE9       29.93F
FORT HOOD      MOSUNNY   93  69  44 NE10      29.90F
GEORGETOWN     MOSUNNY   94  69  44 VRB3      29.94F
LAGO VISTA     NOT AVBL
SAN MARCOS     PTSUNNY   97  66  36 E8G16     29.91F
NEW BRAUNFELS  MOSUNNY   97  64  33 MISG      29.90F
RANDOLPH AFB   MOSUNNY   96  61  31 E8        29.91F
SAN ANTONIO    MOSUNNY   94  63  35 E10       29.92F
STINSON        SUNNY     97  66  36 E8        29.89F
PLEASANTON     NOT AVBL
LA GRANGE      MOSUNNY   98  68  37 CALM      29.87F
GIDDINGS       PTCLDY    96  63  33 E8        29.91F
$$

EAST TEXAS

CITY           SKY/WX    TMP DP  RH WIND       PRES   REMARKS
PARIS          CLOUDY    83  72  69 NE7       29.99F
CLARKSVILLE    NOT AVBL
TYLER          CLOUDY    90  74  59 CALM      29.94F
LONGVIEW       MOSUNNY   93  75  55 E6        29.92F
PALESTINE      PTCLDY    94  71  46 W5        29.93F
NACOGDOCHES    MOSUNNY   95  73  48 VRB7      29.91F
$$

TEXAS HILL COUNTRY AND EDWARDS PLATEAU

CITY           SKY/WX    TMP DP  RH WIND       PRES   REMARKS
LLANO          CLOUDY    77  72  83 NE9       30.00F THUNDER
HORSESHOE BAY  FAIR      83  71  67 NE9G17    29.98R THUNDER
KERRVILLE      RAIN      78  73  84 N12       30.00F
FREDERICKSBRG  TSTM      71  66  83 N18G30    30.02R VSB 3/4
ROCKSPRINGS    NOT AVBL
HONDO          SUNNY     98  64  32 SE13      29.93F
UVALDE         CLOUDY    97  63  32 N5G16     29.94F
DEL RIO        SUNNY     95  63  34 CALM      29.90F
$$

SOUTHEAST TEXAS

CITY           SKY/WX    TMP DP  RH WIND       PRES   REMARKS
COLLEGE STN    MOSUNNY   98  66  34 E6        29.89F
CALDWELL       NOT AVBL
CROCKETT       CLOUDY    93  68  43 CALM      29.93F
BRENHAM        SUNNY     97  64  33 SE7       29.90F
HUNTSVILLE     MOSUNNY   97  65  34 E5        29.91F
CONROE         PTSUNNY   81  69  67 SW5       29.91F THUNDER
HOUSTON BUSH   PTSUNNY   93  73  52 SW3       29.90F
HOUSTON HOBBY  PTSUNNY   87  73  62 W12       29.91F THUNDER
PERLAND        CLOUDY    90  72  55 NE8       29.92F
WHARTON        CLEAR     94  64  36 E7        29.90F
$$

THE UPPER TEXAS COAST

CITY           SKY/WX    TMP DP  RH WIND       PRES   REMARKS
ORANGE         TSTM      76  75  96 NW3       29.94F
PORT ARTHUR    PTSUNNY   87  73  62 NE3       29.91F
GALVESTON      CLOUDY    90  75  61 VRB7      29.93F
ANGLETON       MOSUNNY   94  73  50 NE8       29.91F
BAY CITY       LGT RAIN  89  74  59 SE14      29.91S
$$

TEXAS COASTAL BEND, RIO GRANDE PLAINS DEEP SOUTH TEXAS

CITY           SKY/WX    TMP DP  RH WIND       PRES   REMARKS
VICTORIA       MOSUNNY   98  66  34 VRB5      29.88F
BEEVILLE       FAIR      96  69  41 CALM      29.89F
ROCKPORT       SUNNY     94  75  54 SE12      29.88F
PORT ARANSAS   CLEAR     89  75  63 E13       29.90F
PORT LAVACA    CLEAR     93  69  44 SE8       29.89F
CORPUS CHRISTI MOSUNNY   95  73  48 SE12G21   29.88F
KINGSVILLE NAS PTSUNNY  100  74  43 SE18G24   29.87F
COTULLA        MOSUNNY   99  60  27 VRB6      29.89F
LAREDO         MOSUNNY  100  64  30 E8        29.89F
BROWNSVILLE    MOSUNNY   94  73  50 E14G21    29.88F
PORT ISABEL    SUNNY     91  76  61 E16G23    29.88F
HEBBRONVILLE   MOCLDY    96  59  28 SE7       29.90F
MCALLEN        SUNNY    100  68  35 VRB3      29.87F
WESLACO        MOSUNNY   92  71  49 N3        29.87F
FALFURRIAS     PTCLDY   100  64  31 CALM      29.86F
EDINBURG       CLOUDY    95  69  41 E22G28    29.88S
$$




USA.gov is the U.S. government's official web portal to all federal, state and local government web resources and services.